Location: Newark
(58.8333°N, 23.5833°E)
Time: 19:41:10
(UTC+00:00)

Transit 2A - Visible Passes

Search period start: 13 November 2019 00:00
Search period end: 23 November 2019 00:00
Orbit: 601 x 957 km, 66.7° (Epoch: 12 November)

Date Brightness Start Highest point End Pass type
(mag) Time Alt. Az. Time Alt. Az. Time Alt. Az.
13 Nov 6.7 15:24:45 10° W 15:29:00 34° NNW 15:32:35 12° NE visible
13 Nov 6.6 17:09:03 10° NW 17:13:03 32° N 17:13:03 32° N visible
13 Nov 8.2 18:52:30 10° NW 18:53:32 17° NW 18:53:32 17° NW visible
14 Nov 6.6 14:50:21 10° W 14:54:42 37° NNW 14:58:50 10° NE visible
14 Nov 6.6 16:34:47 10° WNW 16:38:48 31° N 16:39:46 28° NNE visible
14 Nov 7.6 18:18:21 10° NW 18:20:14 24° NW 18:20:14 24° NW visible
15 Nov 6.7 16:00:28 10° WNW 16:04:29 30° N 16:06:28 21° NE visible
15 Nov 6.9 17:44:12 10° NW 17:46:57 32° NNW 17:46:57 32° NNW visible
16 Nov 6.7 15:26:07 10° WNW 15:30:09 30° N 15:33:12 15° NE visible
16 Nov 6.4 17:10:02 10° NW 17:13:41 38° N 17:13:41 38° N visible
16 Nov 8.3 18:53:18 10° NW 18:54:10 16° NW 18:54:10 16° NW visible
17 Nov 6.7 14:51:45 10° WNW 14:55:50 31° N 14:59:46 10° NE visible
17 Nov 6.3 16:35:50 10° NW 16:39:57 35° NNE 16:40:25 34° NNE visible
17 Nov 7.7 18:19:09 10° NW 18:20:55 24° NW 18:20:55 24° NW visible
18 Nov 6.5 16:01:36 10° NW 16:05:40 33° NNE 16:07:12 25° NE visible
18 Nov 6.9 17:45:01 10° NW 17:47:41 35° NW 17:47:41 35° NW visible
19 Nov 6.6 15:27:20 10° NW 15:31:21 31° N 15:33:59 17° ENE visible
19 Nov 6.0 17:10:52 10° NW 17:14:28 49° N 17:14:28 49° N visible
19 Nov 8.4 18:54:11 10° WNW 18:54:57 14° WNW 18:54:57 14° WNW visible
20 Nov 6.6 14:53:02 10° WNW 14:57:01 30° N 15:00:48 10° ENE visible
20 Nov 5.8 16:36:43 10° NW 16:41:00 48° NNE 16:41:17 47° NE visible
20 Nov 7.7 18:19:58 10° NW 18:21:47 23° WNW 18:21:47 23° WNW visible
21 Nov 6.1 16:02:33 10° NW 16:06:45 41° NNE 16:08:10 31° ENE visible
21 Nov 6.8 17:45:48 10° NW 17:48:38 39° WNW 17:48:38 39° WNW visible
22 Nov 6.2 15:28:22 10° NW 15:32:29 36° NNE 15:35:04 19° ENE visible
22 Nov 5.7 17:11:39 10° NW 17:15:33 70° NW 17:15:33 70° NW visible
22 Nov 8.5 18:55:23 10° WNW 18:56:03 13° WNW 18:56:03 13° WNW visible
